| time (UTC) | temp C | wind direction | speed KPH | gust KPH | rain 1hr cm | rain 24hr cm | rain mn cm | humidity % | barometer mb |
| 20260505035357 | 12 | 228 | 4.8 | 6.4 | 0.00 | 0.00 | 0.00 | 89 | 1014.0 |
| 20260505034855 | 12 | 208 | 4.8 | 6.4 | 0.00 | 0.00 | 0.00 | 89 | 1013.9 |
| 20260505034351 | 12 | 215 | 6.4 | 6.4 | 0.00 | 0.00 | 0.00 | 89 | 1013.9 |
| 20260505033848 | 12 | 225 | 4.8 | 4.8 | 0.00 | 0.00 | 0.00 | 89 | 1013.8 |
| 20260505033345 | 12 | 201 | 0.0 | 0.0 | 0.00 | 0.00 | 0.00 | 89 | 1013.9 |
| 20260505032843 | 12 | 231 | 6.4 | 6.4 | 0.00 | 0.00 | 0.00 | 88 | 1013.7 |
| 20260505032339 | 12 | 202 | 0.0 | 1.6 | 0.00 | 0.00 | 0.00 | 89 | 1013.5 |
| 20260505031836 | 12 | 169 | 8.0 | 11.3 | 0.00 | 0.00 | 0.00 | 89 | 1013.8 |
| 20260505031333 | 12 | 219 | 1.6 | 3.2 | 0.00 | 0.00 | 0.00 | 88 | 1013.8 |
| 20260505030830 | 12 | 215 | 4.8 | 9.7 | 0.00 | 0.00 | 0.00 | 89 | 1013.5 |
| 20260505030326 | 12 | 243 | 8.0 | 9.7 | 0.00 | 0.00 | 0.00 | 88 | 1013.6 |
| 20260505025822 | 12 | 206 | 6.4 | 9.7 | 0.00 | 0.00 | 0.00 | 88 | 1013.6 |
| 20260505025320 | 12 | 211 | 4.8 | 6.4 | 0.00 | 0.00 | 0.00 | 88 | 1013.7 |
| 20260505024818 | 12 | 198 | 6.4 | 11.3 | 0.00 | 0.00 | 0.00 | 88 | 1013.5 |
| 20260505024315 | 12 | 209 | 4.8 | 4.8 | 0.00 | 0.00 | 0.00 | 88 | 1013.4 |
| 20260505023812 | 12 | 196 | 6.4 | 11.3 | 0.00 | 0.00 | 0.00 | 88 | 1013.6 |
| 20260505023309 | 12 | 214 | 9.7 | 11.3 | 0.00 | 0.00 | 0.00 | 88 | 1013.6 |
| 20260505022807 | 12 | 228 | 4.8 | 4.8 | 0.00 | 0.00 | 0.00 | 88 | 1013.8 |
| 20260505022304 | 12 | 218 | 6.4 | 6.4 | 0.00 | 0.00 | 0.00 | 88 | 1013.7 |
| 20260505021800 | 13 | 227 | 0.0 | 0.0 | 0.00 | 0.00 | 0.00 | 88 | 1013.7 |
| 20260505021257 | 12 | 208 | 4.8 | 6.4 | 0.00 | 0.00 | 0.00 | 88 | 1013.8 |
| 20260505020753 | 12 | 227 | 4.8 | 6.4 | 0.00 | 0.00 | 0.00 | 88 | 1013.5 |
| 20260505020248 | 12 | 203 | 8.0 | 9.7 | 0.00 | 0.00 | 0.00 | 88 | 1013.9 |
| 20260505015746 | 12 | 223 | 3.2 | 6.4 | 0.00 | 0.00 | 0.00 | 88 | 1013.7 |
| 20260505015242 | 13 | 200 | 8.0 | 11.3 | 0.00 | 0.00 | 0.00 | 88 | 1013.8 |
| 20260505014740 | 13 | 208 | 3.2 | 4.8 | 0.00 | 0.00 | 0.00 | 88 | 1013.7 |
| 20260505014237 | 13 | 209 | 6.4 | 9.7 | 0.00 | 0.00 | 0.00 | 88 | 1014.0 |
| 20260505013733 | 13 | 208 | 6.4 | 6.4 | 0.00 | 0.00 | 0.00 | 88 | 1013.9 |
| 20260505013231 | 13 | 208 | 4.8 | 6.4 | 0.00 | 0.00 | 0.00 | 88 | 1013.7 |
| 20260505012729 | 13 | 206 | 8.0 | 9.7 | 0.00 | 0.00 | 0.00 | 88 | 1013.9 |
| 20260505012226 | 13 | 194 | 3.2 | 9.7 | 0.00 | 0.00 | 0.00 | 88 | 1013.8 |
| 20260505011721 | 13 | 233 | 6.4 | 11.3 | 0.00 | 0.00 | 0.00 | 88 | 1013.9 |
| 20260505011219 | 13 | 198 | 8.0 | 12.9 | 0.00 | 0.00 | 0.00 | 88 | 1013.8 |
| 20260505010714 | 13 | 204 | 6.4 | 9.7 | 0.00 | 0.00 | 0.00 | 87 | 1014.0 |
| 20260505010211 | 13 | 221 | 4.8 | 6.4 | 0.00 | 0.00 | 0.00 | 87 | 1014.2 |
| 20260505005707 | 13 | 192 | 6.4 | 9.7 | 0.00 | 0.00 | 0.00 | 87 | 1013.9 |
| 20260505005205 | 13 | 217 | 4.8 | 4.8 | 0.00 | 0.00 | 0.00 | 87 | 1014.2 |
| 20260505004702 | 13 | 218 | 6.4 | 6.4 | 0.00 | 0.00 | 0.00 | 87 | 1014.2 |
| 20260505004158 | 13 | 225 | 8.0 | 11.3 | 0.00 | 0.00 | 0.00 | 87 | 1014.2 |
| 20260505003655 | 13 | 210 | 8.0 | 11.3 | 0.00 | 0.00 | 0.00 | 87 | 1014.3 |
| 20260505003153 | 13 | 214 | 6.4 | 6.4 | 0.00 | 0.00 | 0.00 | 87 | 1014.2 |
| 20260505002649 | 13 | 194 | 4.8 | 6.4 | 0.00 | 0.00 | 0.00 | 87 | 1014.2 |
| 20260505002147 | 13 | 203 | 4.8 | 9.7 | 0.00 | 0.00 | 0.00 | 87 | 1014.4 |
| 20260505001644 | 13 | 205 | 9.7 | 12.9 | 0.00 | 0.00 | 0.00 | 86 | 1014.3 |
| 20260505001141 | 13 | 192 | 4.8 | 9.7 | 0.00 | 0.00 | 0.00 | 87 | 1014.2 |
| 20260505000638 | 13 | 205 | 8.0 | 11.3 | 0.00 | 0.00 | 0.00 | 86 | 1014.2 |
| 20260505000137 | 13 | 195 | 6.4 | 9.7 | 0.00 | 0.00 | 0.00 | 86 | 1014.3 |
| 20260504235632 | 13 | 200 | 4.8 | 6.4 | 0.00 | 0.00 | 0.00 | 86 | 1014.3 |
| 20260504235129 | 13 | 217 | 8.0 | 9.7 | 0.00 | 0.00 | 0.00 | 86 | 1014.5 |
| 20260504234626 | 13 | 178 | 6.4 | 6.4 | 0.00 | 0.00 | 0.00 | 86 | 1014.4 |
| 20260504234124 | 13 | 224 | 1.6 | 3.2 | 0.00 | 0.00 | 0.00 | 86 | 1014.3 |
| 20260504233619 | 13 | 197 | 6.4 | 9.7 | 0.00 | 0.00 | 0.00 | 86 | 1014.4 |
| 20260504233115 | 13 | 206 | 4.8 | 6.4 | 0.00 | 0.00 | 0.00 | 86 | 1014.5 |
| 20260504232613 | 13 | 205 | 8.0 | 11.3 | 0.00 | 0.00 | 0.00 | 86 | 1014.4 |
| 20260504232110 | 13 | 196 | 6.4 | 6.4 | 0.00 | 0.00 | 0.00 | 86 | 1014.4 |
| 20260504231606 | 13 | 216 | 6.4 | 9.7 | 0.00 | 0.00 | 0.00 | 85 | 1014.1 |
| 20260504231102 | 13 | 217 | 4.8 | 9.7 | 0.00 | 0.00 | 0.00 | 85 | 1014.3 |
| 20260504230558 | 13 | 194 | 6.4 | 6.4 | 0.00 | 0.00 | 0.00 | 85 | 1014.3 |
| 20260504230058 | 13 | 191 | 6.4 | 9.7 | 0.00 | 0.00 | 0.00 | 85 | 1014.2 |
| 20260504225555 | 14 | 229 | 8.0 | 11.3 | 0.00 | 0.00 | 0.00 | 85 | 1014.3 |
| 20260504225052 | 13 | 198 | 4.8 | 6.4 | 0.00 | 0.00 | 0.00 | 85 | 1014.4 |
| 20260504224548 | 14 | 210 | 6.4 | 6.4 | 0.00 | 0.00 | 0.00 | 85 | 1014.5 |
| 20260504224046 | 13 | 213 | 6.4 | 6.4 | 0.00 | 0.00 | 0.00 | 85 | 1014.4 |
| 20260504223543 | 14 | 195 | 6.4 | 9.7 | 0.00 | 0.00 | 0.00 | 85 | 1014.5 |
| 20260504223038 | 14 | 205 | 6.4 | 11.3 | 0.00 | 0.00 | 0.00 | 85 | 1014.5 |
| 20260504222535 | 14 | 194 | 6.4 | 12.9 | 0.00 | 0.00 | 0.00 | 85 | 1014.5 |
| 20260504222033 | 14 | 190 | 9.7 | 14.5 | 0.00 | 0.00 | 0.00 | 85 | 1014.6 |
| 20260504221530 | 14 | 226 | 8.0 | 11.3 | 0.00 | 0.00 | 0.00 | 85 | 1014.4 |
| 20260504221026 | 14 | 210 | 4.8 | 6.4 | 0.00 | 0.00 | 0.00 | 85 | 1014.4 |
| 20260504220523 | 14 | 217 | 4.8 | 9.7 | 0.00 | 0.00 | 0.00 | 85 | 1014.4 |
| 20260504220020 | 14 | 196 | 8.0 | 14.5 | 0.00 | 0.00 | 0.00 | 84 | 1014.5 |
| 20260504215516 | 14 | 201 | 6.4 | 9.7 | 0.00 | 0.00 | 0.00 | 84 | 1014.6 |
| 20260504215014 | 14 | 216 | 4.8 | 9.7 | 0.00 | 0.00 | 0.00 | 84 | 1014.4 |
| 20260504214510 | 14 | 212 | 6.4 | 12.9 | 0.00 | 0.00 | 0.00 | 85 | 1014.4 |
| 20260504214006 | 14 | 199 | 3.2 | 4.8 | 0.00 | 0.00 | 0.00 | 85 | 1014.6 |
| 20260504213502 | 15 | 222 | 1.6 | 4.8 | 0.00 | 0.00 | 0.00 | 85 | 1014.5 |
| 20260504213000 | 14 | 202 | 4.8 | 6.4 | 0.00 | 0.00 | 0.00 | 85 | 1014.6 |
| 20260504212456 | 14 | 219 | 4.8 | 11.3 | 0.00 | 0.00 | 0.00 | 85 | 1014.4 |
| 20260504211953 | 14 | 210 | 6.4 | 12.9 | 0.00 | 0.00 | 0.00 | 85 | 1014.6 |
| 20260504211450 | 15 | 192 | 6.4 | 14.5 | 0.00 | 0.00 | 0.00 | 85 | 1014.5 |
| 20260504210947 | 14 | 193 | 8.0 | 16.1 | 0.00 | 0.00 | 0.00 | 85 | 1014.6 |
| 20260504210444 | 15 | 201 | 8.0 | 17.7 | 0.00 | 0.00 | 0.00 | 85 | 1014.5 |
| 20260504205941 | 15 | 214 | 3.2 | 6.4 | 0.00 | 0.00 | 0.00 | 85 | 1014.6 |
| 20260504205438 | 14 | 186 | 6.4 | 9.7 | 0.00 | 0.00 | 0.00 | 86 | 1014.7 |
| 20260504204937 | 15 | 213 | 4.8 | 11.3 | 0.00 | 0.00 | 0.00 | 86 | 1014.8 |
| 20260504204434 | 14 | 198 | 9.7 | 14.5 | 0.00 | 0.00 | 0.00 | 85 | 1014.5 |
| 20260504203934 | 14 | 217 | 8.0 | 12.9 | 0.00 | 0.00 | 0.00 | 86 | 1014.6 |
| 20260504203431 | 14 | 202 | 9.7 | 14.5 | 0.00 | 0.00 | 0.00 | 86 | 1014.5 |
| 20260504202927 | 14 | 227 | 9.7 | 11.3 | 0.00 | 0.00 | 0.00 | 86 | 1014.6 |
| 20260504202423 | 14 | 199 | 9.7 | 12.9 | 0.00 | 0.00 | 0.00 | 86 | 1014.7 |
| 20260504201920 | 14 | 195 | 8.0 | 11.3 | 0.00 | 0.00 | 0.00 | 87 | 1014.7 |
| 20260504201418 | 14 | 198 | 8.0 | 12.9 | 0.00 | 0.00 | 0.00 | 86 | 1014.7 |
| 20260504200915 | 14 | 214 | 12.9 | 16.1 | 0.00 | 0.00 | 0.00 | 86 | 1014.5 |
| 20260504200411 | 14 | 208 | 12.9 | 17.7 | 0.00 | 0.00 | 0.00 | 86 | 1014.6 |
| 20260504195908 | 14 | 208 | 9.7 | 12.9 | 0.00 | 0.00 | 0.00 | 86 | 1014.5 |
| 20260504195404 | 14 | 221 | 8.0 | 11.3 | 0.00 | 0.00 | 0.00 | 87 | 1014.6 |
| 20260504194901 | 14 | 201 | 8.0 | 12.9 | 0.00 | 0.00 | 0.00 | 87 | 1014.8 |
| 20260504194356 | 14 | 193 | 9.7 | 14.5 | 0.00 | 0.00 | 0.00 | 88 | 1014.5 |
| 20260504193853 | 14 | 214 | 4.8 | 9.7 | 0.00 | 0.00 | 0.00 | 88 | 1014.5 |
| 20260504193350 | 14 | 198 | 6.4 | 11.3 | 0.00 | 0.00 | 0.00 | 88 | 1014.6 |
| 20260504192849 | 14 | 187 | 9.7 | 16.1 | 0.00 | 0.00 | 0.00 | 87 | 1014.4 |
| 20260504192346 | 14 | 204 | 8.0 | 12.9 | 0.00 | 0.00 | 0.00 | 88 | 1014.5 |
| 20260504191844 | 14 | 206 | 8.0 | 11.3 | 0.00 | 0.00 | 0.00 | 87 | 1014.4 |
| 20260504191342 | 14 | 200 | 9.7 | 14.5 | 0.00 | 0.00 | 0.00 | 88 | 1014.5 |
| 20260504190837 | 14 | 186 | 9.7 | 12.9 | 0.00 | 0.00 | 0.00 | 88 | 1014.5 |
| 20260504190333 | 13 | 192 | 6.4 | 11.3 | 0.00 | 0.00 | 0.00 | 88 | 1014.4 |
| 20260504185830 | 14 | 177 | 6.4 | 12.9 | 0.00 | 0.00 | 0.00 | 88 | 1014.5 |
| 20260504185327 | 14 | 197 | 6.4 | 9.7 | 0.00 | 0.00 | 0.00 | 89 | 1014.5 |
| 20260504184823 | 13 | 195 | 9.7 | 14.5 | 0.00 | 0.00 | 0.00 | 88 | 1014.4 |
| 20260504184319 | 13 | 195 | 9.7 | 14.5 | 0.00 | 0.00 | 0.00 | 89 | 1014.7 |
| 20260504183815 | 13 | 201 | 9.7 | 16.1 | 0.00 | 0.00 | 0.00 | 89 | 1014.5 |
| 20260504183312 | 13 | 195 | 9.7 | 11.3 | 0.00 | 0.00 | 0.00 | 89 | 1014.4 |
| 20260504182810 | 13 | 197 | 9.7 | 14.5 | 0.00 | 0.00 | 0.00 | 89 | 1014.7 |
| 20260504182307 | 13 | 200 | 8.0 | 11.3 | 0.00 | 0.00 | 0.00 | 89 | 1014.5 |
| 20260504181804 | 13 | 202 | 8.0 | 12.9 | 0.00 | 0.00 | 0.00 | 90 | 1014.4 |
| 20260504181302 | 13 | 199 | 4.8 | 6.4 | 0.00 | 0.00 | 0.00 | 90 | 1014.5 |
| 20260504180801 | 13 | 190 | 11.3 | 16.1 | 0.00 | 0.00 | 0.00 | 89 | 1014.3 |
| 20260504180259 | 13 | 193 | 9.7 | 16.1 | 0.00 | 0.00 | 0.00 | 90 | 1014.3 |
| 20260504175756 | 13 | 189 | 8.0 | 12.9 | 0.00 | 0.00 | 0.00 | 90 | 1014.3 |
| 20260504175253 | 13 | 180 | 8.0 | 12.9 | 0.00 | 0.00 | 0.00 | 91 | 1014.3 |
| 20260504174751 | 13 | 213 | 11.3 | 16.1 | 0.00 | 0.00 | 0.00 | 90 | 1014.3 |
| 20260504174249 | 13 | 175 | 4.8 | 9.7 | 0.00 | 0.00 | 0.00 | 91 | 1014.3 |
| 20260504173745 | 13 | 181 | 8.0 | 12.9 | 0.00 | 0.00 | 0.00 | 91 | 1014.2 |
| 20260504173242 | 13 | 190 | 9.7 | 17.7 | 0.00 | 0.00 | 0.00 | 91 | 1014.2 |
| 20260504172739 | 13 | 197 | 8.0 | 11.3 | 0.00 | 0.00 | 0.00 | 91 | 1014.4 |
| 20260504172235 | 13 | 192 | 9.7 | 17.7 | 0.00 | 0.00 | 0.00 | 91 | 1014.3 |
| 20260504171731 | 13 | 187 | 12.9 | 20.9 | 0.00 | 0.00 | 0.00 | 91 | 1014.1 |
| 20260504171228 | 13 | 182 | 8.0 | 12.9 | 0.00 | 0.00 | 0.00 | 91 | 1014.2 |
| 20260504170725 | 13 | 183 | 11.3 | 22.5 | 0.00 | 0.00 | 0.00 | 92 | 1014.2 |
| 20260504170223 | 13 | 193 | 8.0 | 12.9 | 0.00 | 0.00 | 0.00 | 92 | 1014.1 |
| 20260504160141 | 12 | 171 | 9.7 | 14.5 | 0.00 | 0.00 | 0.00 | 93 | 1013.7 |
| 20260504151108 | 12 | 191 | 4.8 | 4.8 | 0.00 | 0.00 | 0.00 | 94 | 1013.0 |
| 20260504150606 | 12 | 189 | 3.2 | 4.8 | 0.00 | 0.00 | 0.00 | 94 | 1013.2 |
| 20260504150103 | 12 | 195 | 3.2 | 3.2 | 0.00 | 0.00 | 0.00 | 94 | 1013.1 |
| 20260504141032 | 12 | 186 | 3.2 | 4.8 | 0.00 | 0.00 | 0.00 | 94 | 1012.7 |
| 20260504140528 | 12 | 196 | 3.2 | 4.8 | 0.00 | 0.00 | 0.00 | 95 | 1012.6 |
| 20260504130453 | 11 | 166 | 17.7 | 22.5 | 0.00 | 0.00 | 0.00 | 94 | 1012.2 |
| 20260504110340 | 11 | 212 | 12.9 | 20.9 | 0.00 | 0.00 | 0.00 | 93 | 1011.5 |
| 20260504100257 | 11 | 172 | 17.7 | 20.9 | 0.00 | 0.00 | 0.00 | 92 | 1011.5 |
| 20260504081650 | 8 | 177 | 3.2 | 4.8 | 0.00 | 0.00 | 0.00 | 86 | 1010.6 |
| 20260504081147 | 10 | 176 | 1.6 | 3.2 | 0.00 | 0.00 | 0.00 | 85 | 1010.6 |
| 20260504080643 | 9 | 151 | 0.0 | 0.0 | 0.00 | 0.00 | 0.00 | 85 | 1010.3 |
| 20260504080139 | 9 | 46 | 0.0 | 0.0 | 0.00 | 0.00 | 0.00 | 86 | 1010.1 |
| 20260504070108 | 10 | 47 | 0.0 | 0.0 | 0.00 | 0.00 | 0.00 | 83 | 1010.1 |
| 20260504050456 | 12 | 349 | 0.0 | 0.0 | 0.00 | 0.00 | 0.00 | 78 | 1010.3 |
| 20260504045953 | 12 | 350 | 0.0 | 0.0 | 0.00 | 0.00 | 0.00 | 78 | 1010.2 |
| 20260504045449 | 12 | 350 | 0.0 | 0.0 | 0.00 | 0.00 | 0.00 | 78 | 1010.2 |
| 20260504044945 | 12 | 350 | 0.0 | 0.0 | 0.00 | 0.00 | 0.00 | 77 | 1010.1 |
| 20260504044443 | 12 | 350 | 0.0 | 0.0 | 0.00 | 0.00 | 0.00 | 77 | 1010.2 |
| 20260504043940 | 12 | 350 | 0.0 | 0.0 | 0.00 | 0.00 | 0.00 | 77 | 1010.2 |
| 20260504043437 | 12 | 350 | 0.0 | 0.0 | 0.00 | 0.00 | 0.00 | 77 | 1010.1 |
| 20260504042934 | 12 | 350 | 0.0 | 0.0 | 0.00 | 0.00 | 0.00 | 77 | 1010.1 |
| 20260504042431 | 12 | 348 | 0.0 | 0.0 | 0.00 | 0.00 | 0.00 | 76 | 1010.1 |
| 20260504041927 | 12 | 349 | 0.0 | 0.0 | 0.00 | 0.00 | 0.00 | 76 | 1010.0 |
| 20260504041424 | 12 | 358 | 0.0 | 0.0 | 0.00 | 0.00 | 0.00 | 76 | 1010.0 |
| 20260504040920 | 12 | 4 | 0.0 | 0.0 | 0.00 | 0.00 | 0.00 | 75 | 1010.0 |
| 20260504040418 | 12 | 5 | 0.0 | 0.0 | 0.00 | 0.00 | 0.00 | 75 | 1010.1 |
| 20260504035913 | 12 | 339 | 0.0 | 0.0 | 0.00 | 0.00 | 0.00 | 75 | 1009.9 |